#timestamp,LO_Frequency,Hit 
1505307615.5,286046998.5,N
1505307635.4,286046997.1,N
1505307655.2,286046999.1,N
1505307675.0,286047005.8,N
1505307675.9,286047005.8,N
1505307695.8,286047004.8,N
1505307715.6,286047003.1,N
1505307735.4,286047004.0,N
1505307755.3,286047005.2,N
1505307775.1,286047007.1,N
1505307776.0,286047007.1,N
1505307795.8,286047009.2,N
1505307815.7,286047010.0,N
1505307835.5,286047011.9,N
1505307855.3,286047007.6,N
1505307875.2,286047005.6,N
1505307895.9,286047001.2,N
1505307915.7,286046995.2,N
1505307935.6,286046996.2,N
1505307955.4,286047000.0,N
1505307975.2,286047005.2,N
1505307995.0,286047004.0,N
1505307995.9,286047004.0,N
1505308015.8,286047002.0,N
1505308035.6,286047002.3,N
1505308055.4,286046999.9,N
1505308075.3,286047002.3,N
1505308095.1,286047005.6,N
1505308115.8,286047004.5,N
1505308135.7,286047006.3,N
1505308155.5,286047005.3,N
1505308175.3,286047005.3,N
1505308195.2,286047005.5,N
1505308215.9,286047001.6,N
1505308235.7,286047004.1,N
1505308255.6,286047000.2,N
1505308275.4,286047000.5,N
1505308295.2,286046997.8,N
1505308315.0,286047001.0,N
1505308316.0,286047001.0,N
1505308335.8,286047000.5,N
1505308355.6,286046996.3,N
1505308375.4,286046993.0,N
1505308395.3,286046990.5,N
1505308415.1,286046991.6,N
1505308435.8,286046994.3,N
1505308455.7,286046995.3,N
1505308475.5,286046995.6,N
1505308495.3,286046993.4,N
1505308515.2,286046994.5,N
1505308535.9,286047002.6,N
1505308555.7,286047010.7,N
1505308575.6,286047009.9,N
1505308595.4,286047011.9,N
1505308615.2,286047008.6,N
1505308635.1,286047002.0,N
1505308636.0,286047002.0,N
1505308655.8,286046997.3,N
1505308675.6,286046993.8,N
1505308695.4,286046994.5,N
1505308715.3,286046992.4,N
1505308735.1,286046990.7,N
1505308755.8,286046990.2,N
1505308775.7,286046994.6,N
1505308795.5,286046994.4,N
1505308815.3,286046991.9,N
1505308835.2,286046995.9,N
1505308855.9,286046999.3,N
1505308875.7,286046998.1,N
1505308895.6,286046997.3,N
1505308915.4,286046994.2,N
1505308935.2,286046993.9,N
1505308955.1,286046995.2,N
1505308956.0,286046995.2,N
1505308975.8,286046996.4,N
1505308995.6,286046990.5,N
1505309015.4,286046990.5,N
1505309035.3,286046995.9,N
1505309055.1,286046996.6,N
1505309075.8,286046996.8,N
1505309095.7,286046995.8,N
1505309115.5,286046996.3,N
1505309135.3,286046997.7,N
1505309155.2,286046995.1,N
1505309175.9,286046993.7,N
1505309195.7,286046992.5,N
1505309215.6,286046987.5,P
1505309235.4,286046991.3,N
1505309255.2,286046989.3,P
1505309275.1,286046985.6,P
1505309276.0,286046985.6,P
1505309295.8,286046995.5,N
1505309315.6,286046995.0,N
1505309335.5,286046996.4,N
1505309355.3,286046996.3,N
1505309375.1,286046993.0,N
1505309395.9,286046991.1,N
1505309415.7,286046990.6,N
1505309435.5,286046994.6,N
1505309455.4,286046992.1,N
1505309475.2,286046990.9,N
1505309495.0,286046985.5,P
1505309495.9,286046985.5,P
1505309515.8,286046991.3,N
1505309535.6,286046987.8,P
1505309555.4,286047000.9,N
1505309575.3,286047000.4,N
1505309595.1,286047002.3,N
1505309615.8,286046999.3,N
1505309635.7,286046998.6,N
1505309655.5,286046995.6,N
1505309675.3,286046994.8,N
1505309695.2,286046993.6,N
1505309715.9,286046993.3,N
1505309735.7,286046992.6,N
1505309755.5,286046994.7,N
1505309775.4,286046991.3,N
1505309795.2,286046989.3,N
1505309815.0,286046990.0,N
1505309815.9,286046990.0,N
1505309835.8,286046987.9,N
1505309855.6,286046987.9,N
1505309875.4,286046986.4,N
1505309895.3,286046987.1,N
1505309915.1,286046987.9,N
1505309916.0,286046987.9,N
1505309935.8,286046986.3,N
1505309955.7,286046986.9,N
1505309975.5,286046984.5,P
1505309995.3,286046991.2,N
1505310015.2,286046988.9,P
1505310035.9,286046988.2,P
1505310055.7,286046996.7,P
1505310075.6,286046999.7,N
1505310095.4,286046997.8,N
1505310115.2,286046995.3,N
1505310135.1,286046994.3,N
1505310136.0,286046994.3,N
1505310155.8,286046996.6,N
1505310175.6,286046996.1,N
1505310195.5,286046995.6,N
1505310215.3,286046993.3,N
1505310235.1,286046992.8,N
1505310255.9,286046990.5,P
1505310275.7,286047000.8,N
1505310295.5,286046997.6,N
1505310315.4,286046997.3,N
1505310335.2,286046997.5,N
1505310355.0,286046995.0,N
1505310355.9,286046995.0,N
1505310375.7,286046995.8,N
1505310395.6,286046993.7,N
1505310415.4,286046994.2,N
1505310435.2,286046994.0,N
1505310455.1,286046996.3,N
1505310456.0,286046996.3,N
1505310475.8,286046994.0,N
1505310495.7,286046992.0,P
1505310515.5,286047000.5,N
1505310535.3,286046996.8,N
1505310555.1,286046997.7,N
1505310575.9,286046995.5,N
1505310595.7,286046994.3,N
1505310615.5,286046991.8,P
1505310635.4,286046995.8,N
1505310655.2,286046994.7,N
1505310675.0,286046997.3,N
1505310675.9,286046997.3,N
1505310695.8,286046999.1,N
1505310715.6,286046995.5,N
1505310735.4,286046993.3,P
1505310755.3,286047000.4,N
1505310775.1,286046999.7,N
1505310795.8,286047000.5,N
1505310815.7,286046998.5,N
1505310835.5,286046998.4,N
1505310855.3,286046997.4,N
1505310875.2,286047002.1,N
1505310895.9,286047002.5,N
1505310915.7,286047001.7,N
1505310935.6,286047000.6,N
1505310955.4,286047001.9,N
1505310975.2,286047003.1,N
1505310995.0,286047003.1,N
1505310995.9,286047003.1,N
1505311015.8,286047003.1,N
1505311035.6,286047002.3,N
1505311055.4,286047000.0,N
1505311075.3,286046999.7,N
1505311095.1,286047000.9,N
1505311115.8,286046996.8,N
1505311135.7,286046997.4,N
1505311155.5,286046997.9,N
1505311175.3,286046997.8,N
1505311195.2,286046995.1,N
